Time,TemperatureF,DewpointF,PressureIn,WindDirection,WindDirectionDegrees,WindSpeedMPH,WindSpeedGustMPH,Humidity,HourlyPrecipIn,Conditions,Clouds,dailyrainin,SoftwareType,DateUTC
2013-01-30 00:01:00,34.5,28.0,30.20,SW,225,2.3,2.8,75,0.00,,,0.00,Rainwise IP-100,2013-01-30 05:01:00,
2013-01-30 00:03:00,34.6,28.0,30.20,SW,225,1.4,2.8,75,0.00,,,0.00,Rainwise IP-100,2013-01-30 05:03:00,
2013-01-30 00:08:00,34.6,28.0,30.20,SW,225,3.7,5.1,75,0.00,,,0.00,Rainwise IP-100,2013-01-30 05:08:00,
2013-01-30 00:13:00,35.0,28.0,30.19,SSW,202,2.1,3.7,76,0.00,,,0.00,Rainwise IP-100,2013-01-30 05:13:00,
2013-01-30 00:18:00,35.2,28.0,30.19,South,180,4.0,5.1,77,0.00,,,0.00,Rainwise IP-100,2013-01-30 05:18:00,
2013-01-30 00:23:00,35.3,29.0,30.21,South,180,5.4,5.6,78,0.00,,,0.00,Rainwise IP-100,2013-01-30 05:23:00,
2013-01-30 00:28:00,35.5,29.0,30.21,South,180,3.5,6.5,78,0.00,,,0.00,Rainwise IP-100,2013-01-30 05:28:00,
2013-01-30 00:33:00,35.6,31.0,30.19,SSW,202,3.5,4.2,79,0.00,,,0.00,Rainwise IP-100,2013-01-30 05:33:00,
2013-01-30 00:38:00,35.7,31.0,30.18,SSW,202,6.5,6.5,79,0.00,,,0.00,Rainwise IP-100,2013-01-30 05:38:00,
2013-01-30 00:43:00,35.9,31.0,30.21,SSE,157,4.0,6.5,79,0.00,,,0.00,Rainwise IP-100,2013-01-30 05:43:00,
2013-01-30 00:48:00,36.0,31.0,30.21,WSW,247,5.8,6.8,79,0.00,,,0.00,Rainwise IP-100,2013-01-30 05:48:00,
2013-01-30 00:53:00,36.1,31.0,30.20,South,180,7.2,10.5,79,0.00,,,0.00,Rainwise IP-100,2013-01-30 05:53:00,
2013-01-30 00:58:00,36.3,31.0,30.20,SSE,157,6.8,9.3,79,0.00,,,0.00,Rainwise IP-100,2013-01-30 05:58:00,
2013-01-30 01:03:00,36.4,31.0,30.20,SSW,202,3.5,10.0,79,0.00,,,0.00,Rainwise IP-100,2013-01-30 06:03:00,
2013-01-30 01:08:00,36.5,31.0,30.19,SSW,202,9.8,9.8,79,0.00,,,0.00,Rainwise IP-100,2013-01-30 06:08:00,
2013-01-30 01:13:00,36.6,31.0,30.20,SSE,157,3.7,9.8,79,0.00,,,0.00,Rainwise IP-100,2013-01-30 06:13:00,
2013-01-30 01:17:00,36.6,31.0,30.20,SSE,157,3.7,7.0,79,0.00,,,0.00,Rainwise IP-100,2013-01-30 06:17:00,
2013-01-30 01:22:00,36.7,31.0,30.19,South,180,8.6,13.8,79,0.00,,,0.00,Rainwise IP-100,2013-01-30 06:22:00,
2013-01-30 01:27:00,36.9,31.0,30.19,SSW,202,9.3,10.3,79,0.00,,,0.00,Rainwise IP-100,2013-01-30 06:27:00,
2013-01-30 01:32:00,37.1,31.0,30.18,South,180,4.9,9.3,79,0.00,,,0.00,Rainwise IP-100,2013-01-30 06:32:00,
2013-01-30 01:37:00,37.1,31.0,30.16,SE,135,2.1,8.9,79,0.00,,,0.00,Rainwise IP-100,2013-01-30 06:37:00,
2013-01-30 01:42:00,37.0,31.0,30.15,SSW,202,6.8,8.4,79,0.00,,,0.00,Rainwise IP-100,2013-01-30 06:42:00,
2013-01-30 01:47:00,37.0,31.0,30.16,SSE,157,4.4,11.2,79,0.00,,,0.00,Rainwise IP-100,2013-01-30 06:47:00,
2013-01-30 01:52:00,37.1,32.0,30.16,South,180,11.2,11.2,80,0.00,,,0.00,Rainwise IP-100,2013-01-30 06:52:00,
2013-01-30 01:57:00,37.2,32.0,30.16,SSE,157,9.8,13.8,80,0.00,,,0.00,Rainwise IP-100,2013-01-30 06:57:00,
2013-01-30 02:02:00,37.3,32.0,30.14,South,180,3.3,15.6,81,0.00,,,0.00,Rainwise IP-100,2013-01-30 07:02:00,
2013-01-30 02:07:00,37.3,32.0,30.13,South,180,7.0,13.5,81,0.00,,,0.00,Rainwise IP-100,2013-01-30 07:07:00,
2013-01-30 02:12:00,37.3,32.0,30.16,SSE,157,14.9,14.9,81,0.00,,,0.00,Rainwise IP-100,2013-01-30 07:12:00,
2013-01-30 02:17:00,37.4,32.0,30.13,SSE,157,6.8,15.2,81,0.00,,,0.00,Rainwise IP-100,2013-01-30 07:17:00,
2013-01-30 02:22:00,37.4,32.0,30.16,SSE,157,6.8,17.0,82,0.00,,,0.00,Rainwise IP-100,2013-01-30 07:22:00,
2013-01-30 02:27:00,37.4,32.0,30.14,SSE,157,2.3,10.3,82,0.00,,,0.00,Rainwise IP-100,2013-01-30 07:27:00,
2013-01-30 02:32:00,37.4,32.0,30.12,SSW,202,7.5,8.2,82,0.00,,,0.00,Rainwise IP-100,2013-01-30 07:32:00,
2013-01-30 02:37:00,37.4,32.0,30.15,South,180,9.6,9.6,82,0.00,,,0.00,Rainwise IP-100,2013-01-30 07:37:00,
2013-01-30 02:42:00,37.4,32.0,30.15,SSW,202,6.8,10.5,83,0.00,,,0.00,Rainwise IP-100,2013-01-30 07:42:00,
2013-01-30 02:47:00,37.4,32.0,30.14,SSE,157,9.1,10.3,84,0.00,,,0.00,Rainwise IP-100,2013-01-30 07:47:00,
2013-01-30 02:52:00,37.4,32.0,30.11,South,180,6.1,9.3,84,0.00,,,0.00,Rainwise IP-100,2013-01-30 07:52:00,
2013-01-30 02:57:00,37.4,33.0,30.14,SE,135,7.5,8.9,85,0.00,,,0.00,Rainwise IP-100,2013-01-30 07:57:00,
2013-01-30 03:00:00,37.5,35.0,30.12,SSE,157,5.8,14.5,85,0.00,,,0.00,Rainwise IP-100,2013-01-30 08:00:00,
2013-01-30 03:05:00,37.6,35.0,30.14,SSW,202,11.2,11.9,85,0.00,,,0.00,Rainwise IP-100,2013-01-30 08:05:00,
2013-01-30 03:10:00,37.7,35.0,30.12,SSE,157,7.0,13.1,85,0.00,,,0.00,Rainwise IP-100,2013-01-30 08:10:00,
2013-01-30 03:15:00,37.9,35.0,30.10,SSE,157,10.7,20.1,85,0.00,,,0.00,Rainwise IP-100,2013-01-30 08:15:00,
2013-01-30 03:20:00,37.9,35.0,30.13,SSE,157,9.6,14.9,86,0.00,,,0.00,Rainwise IP-100,2013-01-30 08:20:00,
2013-01-30 03:25:00,37.9,35.0,30.12,SSW,202,9.8,14.5,86,0.00,,,0.00,Rainwise IP-100,2013-01-30 08:25:00,
2013-01-30 03:30:00,37.9,35.0,30.12,SSE,157,4.9,14.0,86,0.00,,,0.00,Rainwise IP-100,2013-01-30 08:30:00,
2013-01-30 03:35:00,37.8,35.0,30.12,South,180,8.2,12.4,87,0.00,,,0.00,Rainwise IP-100,2013-01-30 08:35:00,
2013-01-30 03:40:00,37.8,35.0,30.11,SSE,157,10.3,11.4,87,0.00,,,0.00,Rainwise IP-100,2013-01-30 08:40:00,
2013-01-30 03:45:00,37.7,35.0,30.12,SW,225,11.7,12.6,88,0.00,,,0.00,Rainwise IP-100,2013-01-30 08:45:00,
2013-01-30 03:50:00,37.6,35.0,30.10,SSE,157,18.2,18.2,89,0.00,,,0.00,Rainwise IP-100,2013-01-30 08:50:00,
2013-01-30 03:55:00,37.5,36.0,30.12,SSE,157,12.1,18.2,90,0.00,,,0.00,Rainwise IP-100,2013-01-30 08:55:00,
2013-01-30 04:01:00,37.4,35.0,30.13,South,180,10.5,15.9,92,0.00,,,0.00,Rainwise IP-100,2013-01-30 09:01:00,
2013-01-30 04:06:00,37.4,35.0,30.12,SSW,202,7.7,16.3,93,0.00,,,0.00,Rainwise IP-100,2013-01-30 09:06:00,
2013-01-30 04:12:00,37.4,35.0,30.10,SSE,157,5.4,15.9,93,0.00,,,0.00,Rainwise IP-100,2013-01-30 09:12:00,
2013-01-30 04:17:00,37.4,36.0,30.08,SSW,202,11.9,18.7,94,0.00,,,0.00,Rainwise IP-100,2013-01-30 09:17:00,
2013-01-30 04:22:00,37.4,36.0,30.07,SSE,157,7.9,11.9,95,0.00,,,0.00,Rainwise IP-100,2013-01-30 09:22:00,
2013-01-30 04:27:00,37.5,37.0,30.11,SSW,202,7.7,14.9,95,0.00,,,0.00,Rainwise IP-100,2013-01-30 09:27:00,
2013-01-30 04:32:00,37.6,37.0,30.08,South,180,11.2,15.4,95,0.00,,,0.00,Rainwise IP-100,2013-01-30 09:32:00,
2013-01-30 04:37:00,37.8,37.0,30.07,SSW,202,9.6,16.8,96,0.00,,,0.00,Rainwise IP-100,2013-01-30 09:37:00,
2013-01-30 04:42:00,37.9,37.0,30.08,SSW,202,6.3,12.8,96,0.00,,,0.00,Rainwise IP-100,2013-01-30 09:42:00,
2013-01-30 04:47:00,38.0,37.0,30.07,WSW,247,2.6,14.2,96,0.00,,,0.00,Rainwise IP-100,2013-01-30 09:47:00,
2013-01-30 04:53:00,38.1,37.0,30.08,SSE,157,11.4,11.4,96,0.00,,,0.00,Rainwise IP-100,2013-01-30 09:53:00,
2013-01-30 04:58:00,38.2,37.0,30.08,SW,225,13.3,13.3,96,0.00,,,0.00,Rainwise IP-100,2013-01-30 09:58:00,
2013-01-30 05:04:00,38.4,37.0,30.06,SSW,202,5.6,13.3,97,0.06,,,0.01,Rainwise IP-100,2013-01-30 10:04:00,
2013-01-30 05:09:00,38.5,38.0,30.07,South,180,7.2,13.5,97,0.00,,,0.01,Rainwise IP-100,2013-01-30 10:09:00,
2013-01-30 05:14:00,38.6,38.0,30.06,SSW,202,8.2,13.8,97,0.00,,,0.01,Rainwise IP-100,2013-01-30 10:14:00,
2013-01-30 05:19:00,38.6,38.0,30.04,South,180,12.8,16.3,97,0.00,,,0.01,Rainwise IP-100,2013-01-30 10:19:00,
2013-01-30 05:24:00,38.8,38.0,30.06,SSW,202,4.2,16.3,97,0.00,,,0.01,Rainwise IP-100,2013-01-30 10:24:00,
2013-01-30 05:29:00,38.9,38.0,30.05,SSE,157,22.6,22.6,97,0.06,,,0.02,Rainwise IP-100,2013-01-30 10:29:00,
2013-01-30 05:34:00,39.0,38.0,30.04,WSW,247,11.7,22.9,97,0.06,,,0.02,Rainwise IP-100,2013-01-30 10:34:00,
2013-01-30 05:39:00,39.0,38.0,30.04,SSW,202,7.2,14.7,97,0.00,,,0.02,Rainwise IP-100,2013-01-30 10:39:00,
2013-01-30 05:44:00,39.0,38.0,30.07,SSW,202,9.6,13.1,97,0.06,,,0.03,Rainwise IP-100,2013-01-30 10:44:00,
2013-01-30 05:49:00,39.0,38.0,30.04,SSW,202,3.5,12.6,97,0.06,,,0.03,Rainwise IP-100,2013-01-30 10:49:00,
2013-01-30 05:54:00,39.1,38.0,30.05,SSW,202,12.6,20.5,96,0.00,,,0.03,Rainwise IP-100,2013-01-30 10:54:00,
2013-01-30 05:59:00,39.2,38.0,30.06,SW,225,15.2,21.2,96,0.00,,,0.03,Rainwise IP-100,2013-01-30 10:59:00,
2013-01-30 06:04:00,39.2,38.0,30.06,SSE,157,6.8,17.0,96,0.00,,,0.03,Rainwise IP-100,2013-01-30 11:04:00,
2013-01-30 06:09:00,39.2,38.0,30.03,SSW,202,7.7,16.6,96,0.00,,,0.03,Rainwise IP-100,2013-01-30 11:09:00,
2013-01-30 06:14:00,39.2,38.0,30.06,SSW,202,12.1,19.8,96,0.06,,,0.04,Rainwise IP-100,2013-01-30 11:14:00,
2013-01-30 06:19:00,39.2,38.0,30.06,SW,225,5.4,18.7,95,0.06,,,0.04,Rainwise IP-100,2013-01-30 11:19:00,
2013-01-30 06:24:00,39.2,38.0,30.05,SSW,202,8.6,16.3,95,0.00,,,0.04,Rainwise IP-100,2013-01-30 11:24:00,
2013-01-30 06:29:00,39.2,38.0,30.03,SSW,202,13.3,13.3,94,0.00,,,0.04,Rainwise IP-100,2013-01-30 11:29:00,
2013-01-30 06:34:00,39.2,38.0,30.04,SSW,202,4.7,17.0,94,0.00,,,0.04,Rainwise IP-100,2013-01-30 11:34:00,
2013-01-30 06:39:00,39.3,38.0,30.06,SSW,202,8.2,20.5,94,0.00,,,0.04,Rainwise IP-100,2013-01-30 11:39:00,
2013-01-30 06:44:00,39.4,38.0,30.01,SSW,202,26.3,26.3,94,0.00,,,0.04,Rainwise IP-100,2013-01-30 11:44:00,
2013-01-30 06:49:00,39.5,38.0,30.03,SSW,202,10.3,26.3,93,0.00,,,0.04,Rainwise IP-100,2013-01-30 11:49:00,
2013-01-30 06:54:00,39.5,38.0,30.05,SSE,157,8.2,15.9,93,0.00,,,0.04,Rainwise IP-100,2013-01-30 11:54:00,
2013-01-30 06:59:00,39.4,37.0,30.02,WSW,247,3.3,16.8,93,0.00,,,0.04,Rainwise IP-100,2013-01-30 11:59:00,
2013-01-30 07:04:00,39.5,38.0,30.04,SSW,202,7.2,14.5,93,0.00,,,0.04,Rainwise IP-100,2013-01-30 12:04:00,
2013-01-30 07:09:00,39.7,39.0,30.04,South,180,9.8,15.6,94,0.00,,,0.04,Rainwise IP-100,2013-01-30 12:09:00,
2013-01-30 07:14:00,39.7,39.0,30.04,SW,225,15.2,15.2,94,0.00,,,0.04,Rainwise IP-100,2013-01-30 12:14:00,
2013-01-30 07:19:00,39.6,39.0,30.03,SW,225,4.0,18.2,94,0.00,,,0.04,Rainwise IP-100,2013-01-30 12:19:00,
2013-01-30 07:24:00,39.6,39.0,30.01,South,180,12.1,18.9,95,0.00,,,0.04,Rainwise IP-100,2013-01-30 12:24:00,
2013-01-30 07:29:00,39.6,39.0,30.03,South,180,15.9,21.2,96,0.00,,,0.04,Rainwise IP-100,2013-01-30 12:29:00,
2013-01-30 07:34:00,39.7,39.0,30.02,WSW,247,10.3,25.2,96,0.06,,,0.05,Rainwise IP-100,2013-01-30 12:34:00,
2013-01-30 07:39:00,39.7,39.0,30.01,South,180,5.6,22.6,96,0.06,,,0.05,Rainwise IP-100,2013-01-30 12:39:00,
2013-01-30 07:44:00,39.8,39.0,30.01,SSE,157,11.4,20.1,96,0.00,,,0.05,Rainwise IP-100,2013-01-30 12:44:00,
2013-01-30 07:49:00,39.8,39.0,30.02,SSE,157,13.8,21.7,96,0.00,,,0.05,Rainwise IP-100,2013-01-30 12:49:00,
2013-01-30 07:54:00,39.9,39.0,30.00,SSE,157,9.8,20.5,96,0.00,,,0.05,Rainwise IP-100,2013-01-30 12:54:00,
2013-01-30 07:59:00,39.9,39.0,30.02,SE,135,11.7,17.7,97,0.00,,,0.05,Rainwise IP-100,2013-01-30 12:59:00,
2013-01-30 08:04:00,39.9,39.0,29.99,South,180,7.9,22.2,97,0.00,,,0.05,Rainwise IP-100,2013-01-30 13:04:00,
2013-01-30 08:09:00,39.9,39.0,30.01,SW,225,8.2,22.2,97,0.00,,,0.05,Rainwise IP-100,2013-01-30 13:09:00,
2013-01-30 08:14:00,40.0,39.0,29.98,SW,225,16.3,24.2,97,0.00,,,0.05,Rainwise IP-100,2013-01-30 13:14:00,
2013-01-30 08:19:00,40.0,39.0,29.99,SSW,202,7.2,21.2,97,0.00,,,0.05,Rainwise IP-100,2013-01-30 13:19:00,
2013-01-30 08:24:00,40.1,39.0,29.99,SSE,157,15.2,21.7,97,0.00,,,0.05,Rainwise IP-100,2013-01-30 13:24:00,
2013-01-30 08:29:00,40.2,39.0,30.00,SW,225,10.3,18.7,97,0.00,,,0.05,Rainwise IP-100,2013-01-30 13:29:00,
2013-01-30 08:34:00,40.3,39.0,29.99,SSW,202,10.5,19.6,97,0.00,,,0.05,Rainwise IP-100,2013-01-30 13:34:00,
2013-01-30 08:39:00,40.4,40.0,29.98,SSW,202,8.9,17.0,98,0.00,,,0.05,Rainwise IP-100,2013-01-30 13:39:00,
2013-01-30 08:44:00,40.4,40.0,29.98,SSE,157,9.3,22.9,98,0.00,,,0.05,Rainwise IP-100,2013-01-30 13:44:00,
2013-01-30 08:49:00,40.6,40.0,29.99,SSW,202,17.5,18.4,98,0.00,,,0.05,Rainwise IP-100,2013-01-30 13:49:00,
2013-01-30 08:54:00,40.7,40.0,29.98,SSW,202,19.8,27.0,98,0.00,,,0.05,Rainwise IP-100,2013-01-30 13:54:00,
2013-01-30 08:59:00,40.8,40.0,29.97,SSE,157,13.1,22.2,98,0.00,,,0.05,Rainwise IP-100,2013-01-30 13:59:00,
2013-01-30 09:04:00,40.9,40.0,29.97,SSW,202,4.9,20.8,98,0.00,,,0.05,Rainwise IP-100,2013-01-30 14:04:00,
2013-01-30 09:09:00,41.0,40.0,29.96,SSW,202,9.6,17.7,98,0.00,,,0.05,Rainwise IP-100,2013-01-30 14:09:00,
2013-01-30 09:14:00,41.0,40.0,29.96,SSE,157,12.4,20.8,98,0.00,,,0.05,Rainwise IP-100,2013-01-30 14:14:00,
2013-01-30 09:19:00,41.2,40.0,29.96,South,180,11.2,18.4,98,0.00,,,0.05,Rainwise IP-100,2013-01-30 14:19:00,
2013-01-30 09:24:00,41.3,40.0,29.95,SSW,202,12.4,23.3,98,0.00,,,0.05,Rainwise IP-100,2013-01-30 14:24:00,
2013-01-30 09:29:00,41.4,40.0,29.95,South,180,16.3,21.2,98,0.00,,,0.05,Rainwise IP-100,2013-01-30 14:29:00,
2013-01-30 09:34:00,41.5,41.0,29.94,SSE,157,15.9,20.8,98,0.00,,,0.05,Rainwise IP-100,2013-01-30 14:34:00,
2013-01-30 09:39:00,41.6,41.0,29.97,WSW,247,5.6,21.5,98,0.06,,,0.06,Rainwise IP-100,2013-01-30 14:39:00,
2013-01-30 09:44:00,41.8,41.0,29.96,South,180,13.3,19.8,98,0.06,,,0.06,Rainwise IP-100,2013-01-30 14:44:00,
2013-01-30 09:49:00,41.8,41.0,29.95,SSE,157,7.9,24.0,98,0.00,,,0.06,Rainwise IP-100,2013-01-30 14:49:00,
2013-01-30 09:54:00,41.9,41.0,29.93,SW,225,15.6,22.2,98,0.00,,,0.06,Rainwise IP-100,2013-01-30 14:54:00,
2013-01-30 09:59:00,41.9,41.0,29.95,WSW,247,9.6,29.4,98,0.00,,,0.06,Rainwise IP-100,2013-01-30 14:59:00,
2013-01-30 10:04:00,42.1,41.0,29.94,SW,225,13.5,25.6,98,0.00,,,0.06,Rainwise IP-100,2013-01-30 15:04:00,
2013-01-30 10:09:00,42.2,41.0,29.92,SW,225,16.3,24.2,98,0.00,,,0.06,Rainwise IP-100,2013-01-30 15:09:00,
2013-01-30 10:14:00,42.2,41.0,29.93,South,180,6.3,25.6,98,0.00,,,0.06,Rainwise IP-100,2013-01-30 15:14:00,
2013-01-30 10:19:00,42.2,41.0,29.93,SSE,157,8.6,26.1,98,0.00,,,0.06,Rainwise IP-100,2013-01-30 15:19:00,
2013-01-30 10:24:00,42.2,41.0,29.91,SSE,157,11.9,30.3,98,0.00,,,0.06,Rainwise IP-100,2013-01-30 15:24:00,
2013-01-30 10:29:00,42.3,41.0,29.91,South,180,14.7,28.2,98,0.00,,,0.06,Rainwise IP-100,2013-01-30 15:29:00,
2013-01-30 10:34:00,42.3,42.0,29.90,SSW,202,19.8,31.0,99,0.00,,,0.06,Rainwise IP-100,2013-01-30 15:34:00,
2013-01-30 10:39:00,42.4,42.0,29.90,SW,225,18.4,32.6,99,0.00,,,0.06,Rainwise IP-100,2013-01-30 15:39:00,
2013-01-30 10:44:00,42.6,43.0,29.89,South,180,5.6,23.8,99,0.00,,,0.06,Rainwise IP-100,2013-01-30 15:44:00,
2013-01-30 10:49:00,42.7,43.0,29.88,SSE,157,16.1,28.2,99,0.00,,,0.06,Rainwise IP-100,2013-01-30 15:49:00,
2013-01-30 10:54:00,42.7,43.0,29.88,South,180,14.0,27.3,99,0.00,,,0.06,Rainwise IP-100,2013-01-30 15:54:00,
2013-01-30 10:59:00,42.8,43.0,29.87,SSW,202,30.1,30.1,99,0.00,,,0.06,Rainwise IP-100,2013-01-30 15:59:00,
2013-01-30 11:04:00,42.8,43.0,29.86,SW,225,14.9,30.1,99,0.00,,,0.06,Rainwise IP-100,2013-01-30 16:04:00,
2013-01-30 11:09:00,43.0,43.0,29.85,SW,225,9.6,34.0,99,0.00,,,0.06,Rainwise IP-100,2013-01-30 16:09:00,
2013-01-30 11:14:00,43.3,43.0,29.84,South,180,14.0,32.2,99,0.00,,,0.06,Rainwise IP-100,2013-01-30 16:14:00,
2013-01-30 11:19:00,43.4,43.0,29.84,SSW,202,23.3,30.5,99,0.00,,,0.06,Rainwise IP-100,2013-01-30 16:19:00,
2013-01-30 11:24:00,43.5,44.0,29.84,SW,225,8.6,28.9,99,0.00,,,0.06,Rainwise IP-100,2013-01-30 16:24:00,
2013-01-30 11:29:00,43.6,44.0,29.84,SSW,202,21.9,31.2,99,0.00,,,0.06,Rainwise IP-100,2013-01-30 16:29:00,
2013-01-30 11:34:00,43.8,44.0,29.85,SW,225,10.3,28.7,99,0.00,,,0.06,Rainwise IP-100,2013-01-30 16:34:00,
2013-01-30 11:39:00,44.1,44.0,29.84,SSW,202,14.2,27.5,99,0.00,,,0.06,Rainwise IP-100,2013-01-30 16:39:00,
2013-01-30 11:44:00,44.5,45.0,29.82,SSW,202,13.5,21.0,99,0.00,,,0.06,Rainwise IP-100,2013-01-30 16:44:00,
2013-01-30 11:49:00,44.7,45.0,29.86,SW,225,6.5,21.7,99,0.00,,,0.06,Rainwise IP-100,2013-01-30 16:49:00,
2013-01-30 11:54:00,45.0,45.0,29.83,SSW,202,18.4,24.0,99,0.00,,,0.06,Rainwise IP-100,2013-01-30 16:54:00,
2013-01-30 11:59:00,45.2,45.0,29.82,SSW,202,14.0,27.3,99,0.00,,,0.06,Rainwise IP-100,2013-01-30 16:59:00,
2013-01-30 12:04:00,45.4,44.0,29.79,SW,225,15.9,28.2,98,0.00,,,0.06,Rainwise IP-100,2013-01-30 17:04:00,
2013-01-30 12:09:00,45.5,45.0,29.82,South,180,20.1,31.0,98,0.00,,,0.06,Rainwise IP-100,2013-01-30 17:09:00,
2013-01-30 12:14:00,45.5,45.0,29.82,WSW,247,19.8,27.3,98,0.00,,,0.06,Rainwise IP-100,2013-01-30 17:14:00,
2013-01-30 12:19:00,45.6,45.0,29.81,SW,225,13.5,32.4,98,0.00,,,0.06,Rainwise IP-100,2013-01-30 17:19:00,
2013-01-30 12:24:00,45.6,45.0,29.79,SSW,202,7.0,29.1,98,0.00,,,0.06,Rainwise IP-100,2013-01-30 17:24:00,
2013-01-30 12:29:00,45.7,45.0,29.80,SW,225,12.8,29.1,97,0.00,,,0.06,Rainwise IP-100,2013-01-30 17:29:00,
2013-01-30 12:34:00,45.8,45.0,29.80,SW,225,14.2,29.1,97,0.00,,,0.06,Rainwise IP-100,2013-01-30 17:34:00,
2013-01-30 12:39:00,45.9,45.0,29.78,SSW,202,13.3,28.7,97,0.00,,,0.06,Rainwise IP-100,2013-01-30 17:39:00,
2013-01-30 12:44:00,46.1,45.0,29.77,SSE,157,19.6,30.8,97,0.00,,,0.06,Rainwise IP-100,2013-01-30 17:44:00,
2013-01-30 12:49:00,46.2,45.0,29.77,SSW,202,15.4,25.6,97,0.00,,,0.06,Rainwise IP-100,2013-01-30 17:49:00,
2013-01-30 12:54:00,46.4,45.0,29.78,SSW,202,17.3,30.5,97,0.00,,,0.06,Rainwise IP-100,2013-01-30 17:54:00,
2013-01-30 12:59:00,46.6,46.0,29.75,SSW,202,12.4,30.1,97,0.00,,,0.06,Rainwise IP-100,2013-01-30 17:59:00,
2013-01-30 13:04:00,47.0,46.0,29.77,SSW,202,31.0,31.0,96,0.00,,,0.06,Rainwise IP-100,2013-01-30 18:04:00,
2013-01-30 13:09:00,47.3,47.0,29.76,SW,225,20.3,36.8,96,0.00,,,0.06,Rainwise IP-100,2013-01-30 18:09:00,
2013-01-30 13:14:00,47.5,47.0,29.77,SSW,202,25.9,28.7,96,0.00,,,0.06,Rainwise IP-100,2013-01-30 18:14:00,
2013-01-30 13:19:00,47.7,47.0,29.76,SSW,202,18.7,29.6,96,0.00,,,0.06,Rainwise IP-100,2013-01-30 18:19:00,
2013-01-30 13:24:00,47.7,47.0,29.74,SSW,202,28.0,28.0,96,0.00,,,0.06,Rainwise IP-100,2013-01-30 18:24:00,
2013-01-30 13:29:00,47.7,47.0,29.70,South,180,18.9,31.7,96,0.00,,,0.06,Rainwise IP-100,2013-01-30 18:29:00,
2013-01-30 13:34:00,47.9,47.5,29.72,SSW,202,23.1,30.8,96,0.00,,,0.06,Rainwise IP-100,2013-01-30 18:34:00,
2013-01-30 13:39:00,48.1,47.5,29.73,SSW,202,21.9,30.5,96,0.00,,,0.06,Rainwise IP-100,2013-01-30 18:39:00,
2013-01-30 13:45:00,48.3,47.5,29.72,SSW,202,7.9,32.9,96,0.00,,,0.06,Rainwise IP-100,2013-01-30 18:45:00,
2013-01-30 13:50:00,48.5,48.0,29.72,WSW,247,17.7,24.2,97,0.00,,,0.06,Rainwise IP-100,2013-01-30 18:50:00,
2013-01-30 13:55:00,48.7,48.0,29.73,WSW,247,11.2,28.9,97,0.00,,,0.06,Rainwise IP-100,2013-01-30 18:55:00,
2013-01-30 14:00:00,48.9,48.0,29.71,SSE,157,13.1,20.8,97,0.00,,,0.06,Rainwise IP-100,2013-01-30 19:00:00,
2013-01-30 14:05:00,49.0,48.0,29.72,South,180,17.0,33.8,97,0.00,,,0.06,Rainwise IP-100,2013-01-30 19:05:00,
2013-01-30 14:10:00,49.3,48.0,29.70,South,180,14.2,38.9,97,0.00,,,0.06,Rainwise IP-100,2013-01-30 19:10:00,
2013-01-30 14:15:00,49.4,48.0,29.71,SSE,157,9.3,34.7,97,0.06,,,0.07,Rainwise IP-100,2013-01-30 19:15:00,
2013-01-30 14:20:00,49.3,48.0,29.67,SSW,202,33.6,33.6,97,0.06,,,0.07,Rainwise IP-100,2013-01-30 19:20:00,
2013-01-30 14:25:00,49.5,49.0,29.72,SW,225,25.9,35.0,97,0.00,,,0.07,Rainwise IP-100,2013-01-30 19:25:00,
2013-01-30 14:30:00,49.7,49.0,29.70,SSW,202,19.8,32.4,97,0.00,,,0.07,Rainwise IP-100,2013-01-30 19:30:00,
2013-01-30 14:35:00,49.7,49.0,29.68,SSE,157,24.2,35.9,97,0.00,,,0.07,Rainwise IP-100,2013-01-30 19:35:00,
2013-01-30 14:40:00,49.7,49.0,29.70,SSE,157,16.8,33.8,97,0.00,,,0.07,Rainwise IP-100,2013-01-30 19:40:00,
2013-01-30 14:45:00,49.7,49.0,29.69,South,180,21.9,34.7,97,0.00,,,0.07,Rainwise IP-100,2013-01-30 19:45:00,
2013-01-30 14:50:00,49.6,49.0,29.69,SSW,202,19.4,26.1,98,0.00,,,0.07,Rainwise IP-100,2013-01-30 19:50:00,
2013-01-30 14:55:00,49.6,49.0,29.69,South,180,6.5,26.6,98,0.00,,,0.07,Rainwise IP-100,2013-01-30 19:55:00,
2013-01-30 15:00:00,49.6,49.0,29.69,SSW,202,8.2,24.7,98,0.00,,,0.07,Rainwise IP-100,2013-01-30 20:00:00,
2013-01-30 15:05:00,49.8,49.0,29.69,SW,225,14.5,26.8,98,0.00,,,0.07,Rainwise IP-100,2013-01-30 20:05:00,
2013-01-30 15:10:00,50.1,49.0,29.66,South,180,7.7,34.0,98,0.00,,,0.07,Rainwise IP-100,2013-01-30 20:10:00,
2013-01-30 15:15:00,50.0,49.0,29.67,SSW,202,15.9,25.6,98,0.00,,,0.07,Rainwise IP-100,2013-01-30 20:15:00,
2013-01-30 15:20:00,50.0,49.0,29.66,WSW,247,9.1,28.9,98,0.00,,,0.07,Rainwise IP-100,2013-01-30 20:20:00,
2013-01-30 15:25:00,50.1,49.0,29.68,SW,225,9.8,27.5,98,0.00,,,0.07,Rainwise IP-100,2013-01-30 20:25:00,
2013-01-30 15:30:00,50.1,49.0,29.68,SSW,202,6.5,28.0,98,0.00,,,0.07,Rainwise IP-100,2013-01-30 20:30:00,
2013-01-30 15:35:00,50.3,50.0,29.67,SSW,202,18.0,22.4,98,0.00,,,0.07,Rainwise IP-100,2013-01-30 20:35:00,
2013-01-30 15:40:00,50.5,50.0,29.68,South,180,7.2,30.3,98,0.00,,,0.07,Rainwise IP-100,2013-01-30 20:40:00,
2013-01-30 15:45:00,50.7,50.0,29.68,SSW,202,19.6,25.6,98,0.00,,,0.07,Rainwise IP-100,2013-01-30 20:45:00,
2013-01-30 15:50:00,50.9,50.5,29.65,SSW,202,18.7,36.6,98,0.00,,,0.07,Rainwise IP-100,2013-01-30 20:50:00,
2013-01-30 15:55:00,51.0,50.5,29.64,SW,225,17.0,29.8,98,0.00,,,0.07,Rainwise IP-100,2013-01-30 20:55:00,
2013-01-30 16:00:00,51.1,50.5,29.64,SW,225,20.3,37.1,98,0.00,,,0.07,Rainwise IP-100,2013-01-30 21:00:00,
2013-01-30 16:05:00,51.1,50.5,29.66,SSW,202,23.3,31.5,98,0.00,,,0.07,Rainwise IP-100,2013-01-30 21:05:00,
2013-01-30 16:10:00,51.0,50.5,29.64,SW,225,9.6,34.3,98,0.00,,,0.07,Rainwise IP-100,2013-01-30 21:10:00,
2013-01-30 16:15:00,51.0,50.5,29.62,SW,225,17.7,34.7,98,0.00,,,0.07,Rainwise IP-100,2013-01-30 21:15:00,
2013-01-30 16:20:00,51.2,50.5,29.63,SW,225,6.5,31.9,98,0.00,,,0.07,Rainwise IP-100,2013-01-30 21:20:00,
2013-01-30 16:25:00,51.5,51.0,29.63,South,180,12.8,35.4,98,0.00,,,0.07,Rainwise IP-100,2013-01-30 21:25:00,
2013-01-30 16:30:00,51.8,51.0,29.63,SSW,202,23.3,34.3,97,0.00,,,0.07,Rainwise IP-100,2013-01-30 21:30:00,
2013-01-30 16:35:00,52.1,51.0,29.64,SSW,202,28.0,32.6,97,0.00,,,0.07,Rainwise IP-100,2013-01-30 21:35:00,
2013-01-30 16:40:00,52.5,52.0,29.63,South,180,17.0,33.1,97,0.00,,,0.07,Rainwise IP-100,2013-01-30 21:40:00,
2013-01-30 16:45:00,52.5,51.0,29.60,SSW,202,7.7,28.7,96,0.00,,,0.07,Rainwise IP-100,2013-01-30 21:45:00,
2013-01-30 16:50:00,52.4,50.5,29.60,SSE,157,18.2,26.8,96,0.00,,,0.07,Rainwise IP-100,2013-01-30 21:50:00,
2013-01-30 16:55:00,52.6,51.0,29.63,South,180,13.3,35.4,96,0.00,,,0.07,Rainwise IP-100,2013-01-30 21:55:00,
2013-01-30 17:00:00,52.9,51.0,29.62,SSE,157,13.8,31.9,96,0.00,,,0.07,Rainwise IP-100,2013-01-30 22:00:00,
2013-01-30 17:05:00,53.3,52.0,29.60,SSW,202,9.8,38.2,96,0.00,,,0.07,Rainwise IP-100,2013-01-30 22:05:00,
2013-01-30 17:10:00,53.2,51.0,29.62,WSW,247,11.9,27.7,96,0.00,,,0.07,Rainwise IP-100,2013-01-30 22:10:00,
2013-01-30 17:15:00,52.9,51.0,29.60,South,180,19.8,28.4,96,0.00,,,0.07,Rainwise IP-100,2013-01-30 22:15:00,
2013-01-30 17:20:00,53.2,51.0,29.60,SSW,202,27.5,40.6,96,0.00,,,0.07,Rainwise IP-100,2013-01-30 22:20:00,
2013-01-30 17:25:00,53.4,52.0,29.61,SW,225,18.2,31.9,96,0.00,,,0.07,Rainwise IP-100,2013-01-30 22:25:00,
2013-01-30 17:30:00,53.3,52.0,29.59,SW,225,21.0,39.9,96,0.00,,,0.07,Rainwise IP-100,2013-01-30 22:30:00,
2013-01-30 17:35:00,53.4,52.0,29.61,South,180,21.9,34.0,96,0.00,,,0.07,Rainwise IP-100,2013-01-30 22:35:00,
2013-01-30 17:40:00,53.6,52.0,29.59,SSW,202,27.3,28.7,96,0.00,,,0.07,Rainwise IP-100,2013-01-30 22:40:00,
2013-01-30 17:45:00,53.7,52.0,29.64,SSE,157,14.0,31.7,96,0.00,,,0.07,Rainwise IP-100,2013-01-30 22:45:00,
2013-01-30 17:50:00,53.7,52.0,29.59,SW,225,21.9,30.5,96,0.00,,,0.07,Rainwise IP-100,2013-01-30 22:50:00,
2013-01-30 17:55:00,53.7,52.0,29.64,SSW,202,26.8,31.9,96,0.00,,,0.07,Rainwise IP-100,2013-01-30 22:55:00,
2013-01-30 18:00:00,53.7,52.0,29.57,South,180,20.5,31.7,96,0.00,,,0.07,Rainwise IP-100,2013-01-30 23:00:00,
2013-01-30 18:05:00,53.6,52.0,29.62,SSW,202,24.7,42.4,96,0.30,,,0.12,Rainwise IP-100,2013-01-30 23:05:00,
2013-01-30 18:10:00,53.5,52.0,29.62,SW,225,34.0,34.0,96,0.30,,,0.12,Rainwise IP-100,2013-01-30 23:10:00,
2013-01-30 18:15:00,53.5,52.0,29.61,South,180,20.1,38.5,96,0.00,,,0.12,Rainwise IP-100,2013-01-30 23:15:00,
2013-01-30 18:20:00,53.4,52.0,29.61,SSW,202,13.8,35.2,96,0.00,,,0.12,Rainwise IP-100,2013-01-30 23:20:00,
2013-01-30 18:25:00,53.2,51.0,29.61,SW,225,12.4,29.4,96,0.00,,,0.12,Rainwise IP-100,2013-01-30 23:25:00,
2013-01-30 18:30:00,53.1,51.0,29.63,SSW,202,13.5,32.4,96,0.00,,,0.12,Rainwise IP-100,2013-01-30 23:30:00,
2013-01-30 18:35:00,53.0,51.0,29.60,SSW,202,15.2,29.1,96,0.00,,,0.12,Rainwise IP-100,2013-01-30 23:35:00,
2013-01-30 18:40:00,53.1,52.0,29.60,SW,225,22.6,31.7,97,0.00,,,0.12,Rainwise IP-100,2013-01-30 23:40:00,
2013-01-30 18:45:00,53.2,52.0,29.61,SW,225,6.3,29.8,97,0.00,,,0.12,Rainwise IP-100,2013-01-30 23:45:00,
2013-01-30 18:50:00,53.2,52.0,29.56,South,180,23.8,29.1,97,0.00,,,0.12,Rainwise IP-100,2013-01-30 23:50:00,
2013-01-30 18:55:00,53.0,52.0,29.58,SSW,202,10.7,27.3,97,0.00,,,0.12,Rainwise IP-100,2013-01-30 23:55:00,
2013-01-30 19:00:00,53.0,52.0,29.58,SSW,202,12.8,32.2,97,0.00,,,0.12,Rainwise IP-100,2013-01-31 00:00:00,
2013-01-30 19:05:00,53.1,52.0,29.60,SW,225,8.2,27.0,97,0.00,,,0.12,Rainwise IP-100,2013-01-31 00:05:00,
2013-01-30 19:10:00,53.1,52.0,29.61,WSW,247,14.2,25.4,97,0.00,,,0.12,Rainwise IP-100,2013-01-31 00:10:00,
2013-01-30 19:15:00,53.1,52.0,29.60,SW,225,11.0,31.5,97,0.00,,,0.12,Rainwise IP-100,2013-01-31 00:15:00,
2013-01-30 19:20:00,53.1,52.0,29.60,WSW,247,22.4,27.5,98,0.00,,,0.12,Rainwise IP-100,2013-01-31 00:20:00,
2013-01-30 19:25:00,53.2,52.0,29.59,SW,225,9.8,30.3,98,0.00,,,0.12,Rainwise IP-100,2013-01-31 00:25:00,
2013-01-30 19:30:00,53.4,53.0,29.59,SW,225,10.0,25.6,97,0.00,,,0.12,Rainwise IP-100,2013-01-31 00:30:00,
2013-01-30 19:35:00,53.4,53.0,29.59,SSW,202,7.2,29.1,97,0.00,,,0.12,Rainwise IP-100,2013-01-31 00:35:00,
2013-01-30 19:40:00,53.2,52.0,29.59,WSW,247,13.5,23.3,97,0.00,,,0.12,Rainwise IP-100,2013-01-31 00:40:00,
2013-01-30 19:45:00,53.2,52.0,29.61,WSW,247,18.4,26.6,97,0.00,,,0.12,Rainwise IP-100,2013-01-31 00:45:00,
2013-01-30 19:50:00,53.3,53.0,29.60,South,180,8.2,26.8,97,0.00,,,0.12,Rainwise IP-100,2013-01-31 00:50:00,
2013-01-30 19:55:00,53.3,53.0,29.61,SSW,202,20.8,23.3,97,0.00,,,0.12,Rainwise IP-100,2013-01-31 00:55:00,
2013-01-30 20:00:00,53.4,53.0,29.60,SW,225,17.0,24.5,97,0.00,,,0.12,Rainwise IP-100,2013-01-31 01:00:00,
2013-01-30 20:05:00,53.4,53.0,29.60,SW,225,6.5,24.0,98,0.00,,,0.12,Rainwise IP-100,2013-01-31 01:05:00,
2013-01-30 20:10:00,53.5,53.0,29.61,WSW,247,7.5,23.6,98,0.00,,,0.12,Rainwise IP-100,2013-01-31 01:10:00,
2013-01-30 20:15:00,53.5,53.0,29.58,SSW,202,20.5,29.8,98,0.00,,,0.12,Rainwise IP-100,2013-01-31 01:15:00,
2013-01-30 20:20:00,53.3,53.0,29.59,SW,225,14.7,24.2,98,0.00,,,0.12,Rainwise IP-100,2013-01-31 01:20:00,
2013-01-30 20:25:00,53.2,52.0,29.61,WSW,247,13.1,28.2,98,0.00,,,0.12,Rainwise IP-100,2013-01-31 01:25:00,
2013-01-30 20:30:00,53.1,52.0,29.54,South,180,27.3,27.3,98,0.00,,,0.12,Rainwise IP-100,2013-01-31 01:30:00,
2013-01-30 20:35:00,53.1,52.0,29.58,SSW,202,15.6,30.5,98,0.00,,,0.12,Rainwise IP-100,2013-01-31 01:35:00,
2013-01-30 20:40:00,53.2,52.0,29.56,SW,225,15.6,33.3,98,0.00,,,0.12,Rainwise IP-100,2013-01-31 01:40:00,
2013-01-30 20:45:00,53.3,53.0,29.59,WSW,247,10.7,29.1,98,0.00,,,0.12,Rainwise IP-100,2013-01-31 01:45:00,
2013-01-30 20:50:00,53.3,53.0,29.55,SW,225,11.0,30.3,98,0.00,,,0.12,Rainwise IP-100,2013-01-31 01:50:00,
2013-01-30 20:55:00,53.2,52.0,29.57,SE,135,8.2,23.8,98,0.00,,,0.12,Rainwise IP-100,2013-01-31 01:55:00,
2013-01-30 21:00:00,53.0,52.0,29.57,South,180,15.9,31.7,98,0.06,,,0.14,Rainwise IP-100,2013-01-31 02:00:00,
2013-01-30 21:05:00,53.0,52.0,29.56,SSW,202,15.9,24.9,98,0.12,,,0.14,Rainwise IP-100,2013-01-31 02:05:00,
2013-01-30 21:10:00,53.1,52.0,29.57,SW,225,13.1,32.4,98,0.12,,,0.15,Rainwise IP-100,2013-01-31 02:10:00,
2013-01-30 21:15:00,53.1,52.0,29.57,SSW,202,21.5,27.0,98,0.06,,,0.15,Rainwise IP-100,2013-01-31 02:15:00,
2013-01-30 21:20:00,53.0,52.0,29.54,SSW,202,19.4,29.6,98,0.00,,,0.15,Rainwise IP-100,2013-01-31 02:20:00,
2013-01-30 21:25:00,53.0,52.0,29.57,SE,135,19.4,26.3,98,0.00,,,0.15,Rainwise IP-100,2013-01-31 02:25:00,
2013-01-30 21:30:00,53.2,52.0,29.55,SW,225,14.2,27.3,98,0.06,,,0.16,Rainwise IP-100,2013-01-31 02:30:00,
2013-01-30 21:35:00,53.5,53.0,29.52,WSW,247,9.8,32.2,98,0.06,,,0.16,Rainwise IP-100,2013-01-31 02:35:00,
2013-01-30 21:40:00,53.8,53.5,29.53,SSW,202,21.7,26.6,98,0.00,,,0.16,Rainwise IP-100,2013-01-31 02:40:00,
2013-01-30 21:45:00,53.9,53.5,29.54,WNW,292,2.6,23.1,98,0.00,,,0.16,Rainwise IP-100,2013-01-31 02:45:00,
2013-01-30 21:50:00,53.9,53.5,29.53,WSW,247,15.9,35.9,98,0.06,,,0.17,Rainwise IP-100,2013-01-31 02:50:00,
2013-01-30 21:55:00,54.0,53.5,29.55,WSW,247,11.0,37.3,98,0.06,,,0.17,Rainwise IP-100,2013-01-31 02:55:00,
2013-01-30 22:00:00,54.1,53.5,29.53,South,180,20.5,40.3,98,0.00,,,0.17,Rainwise IP-100,2013-01-31 03:00:00,
2013-01-30 22:05:00,54.3,54.0,29.52,SW,225,13.1,35.7,98,0.00,,,0.17,Rainwise IP-100,2013-01-31 03:05:00,
2013-01-30 22:10:00,54.3,54.0,29.53,SSW,202,4.7,29.4,98,0.00,,,0.17,Rainwise IP-100,2013-01-31 03:10:00,
2013-01-30 22:15:00,54.2,53.5,29.53,SW,225,5.6,24.9,98,0.00,,,0.17,Rainwise IP-100,2013-01-31 03:15:00,
2013-01-30 22:20:00,54.2,53.5,29.55,SSW,202,8.4,22.4,98,0.00,,,0.17,Rainwise IP-100,2013-01-31 03:20:00,
2013-01-30 22:25:00,54.1,53.5,29.52,SW,225,10.3,24.0,98,0.00,,,0.17,Rainwise IP-100,2013-01-31 03:25:00,
2013-01-30 22:30:00,54.3,54.0,29.53,WSW,247,30.3,30.3,98,0.00,,,0.17,Rainwise IP-100,2013-01-31 03:30:00,
2013-01-30 22:35:00,54.4,54.0,29.51,SSW,202,21.0,32.6,98,0.00,,,0.17,Rainwise IP-100,2013-01-31 03:35:00,
2013-01-30 22:40:00,54.6,54.0,29.53,WSW,247,17.7,30.3,98,0.00,,,0.17,Rainwise IP-100,2013-01-31 03:40:00,
2013-01-30 22:45:00,54.7,54.0,29.51,SSW,202,14.7,37.8,98,0.00,,,0.17,Rainwise IP-100,2013-01-31 03:45:00,
2013-01-30 22:50:00,54.8,54.5,29.53,SSW,202,22.2,35.9,98,0.00,,,0.17,Rainwise IP-100,2013-01-31 03:50:00,
2013-01-30 22:55:00,55.0,54.5,29.53,SSW,202,26.3,26.3,98,0.00,,,0.17,Rainwise IP-100,2013-01-31 03:55:00,
2013-01-30 23:00:00,55.1,54.5,29.51,SW,225,21.9,36.8,98,0.00,,,0.17,Rainwise IP-100,2013-01-31 04:00:00,
2013-01-30 23:05:00,55.2,54.5,29.52,SW,225,9.8,31.9,98,0.00,,,0.17,Rainwise IP-100,2013-01-31 04:05:00,
2013-01-30 23:10:00,55.4,54.5,29.53,SW,225,31.0,34.7,97,0.00,,,0.17,Rainwise IP-100,2013-01-31 04:10:00,
2013-01-30 23:15:00,55.5,55.0,29.52,West,270,19.1,31.7,97,0.00,,,0.17,Rainwise IP-100,2013-01-31 04:15:00,
2013-01-30 23:20:00,55.4,54.5,29.51,SW,225,12.4,36.6,97,0.00,,,0.17,Rainwise IP-100,2013-01-31 04:20:00,
2013-01-30 23:25:00,55.4,54.5,29.50,SW,225,6.5,28.7,97,0.00,,,0.17,Rainwise IP-100,2013-01-31 04:25:00,
2013-01-30 23:30:00,55.4,54.5,29.52,SW,225,19.1,36.6,97,0.00,,,0.17,Rainwise IP-100,2013-01-31 04:30:00,
2013-01-30 23:35:00,55.5,55.0,29.47,SSW,202,19.4,28.2,97,0.00,,,0.17,Rainwise IP-100,2013-01-31 04:35:00,
2013-01-30 23:40:00,55.5,55.0,29.50,SW,225,9.6,36.1,97,0.00,,,0.17,Rainwise IP-100,2013-01-31 04:40:00,
2013-01-30 23:45:00,55.5,55.0,29.50,WSW,247,10.7,33.8,97,0.00,,,0.17,Rainwise IP-100,2013-01-31 04:45:00,
2013-01-30 23:50:00,55.6,55.0,29.50,SW,225,14.7,35.0,97,0.00,,,0.17,Rainwise IP-100,2013-01-31 04:50:00,
2013-01-30 23:55:00,55.5,55.0,29.50,WSW,247,22.6,28.4,97,0.00,,,0.18,Rainwise IP-100,2013-01-31 04:55:00,